Location: ČR
(50.0000°N, 15.0000°E)
Time: 06:39:55
(UTC+02:00)

A-11 Canister half - Pass Details

Date: 20 March 2026
Orbit: 1514 x 1685 km, 47.2° (Epoch: 18 April)

Event Time Altitude Azimuth Distance (km) Brightness Sun altitude
Rises 10:02:29 0° 166° (SSE) 4,773 12.5 33.2°
Reaches altitude 10° 10:09:14 10° 133° (SE) 3,844 12.5 33.9°
Maximum altitude 10:11:15 11° 121° (ESE) 3,797 12.2 34.1°
Drops below altitude 10° 10:13:16 10° 108° (ESE) 3,875 12.0 34.3°
Sets 10:20:09 0° 76° (ENE) 4,909 11.9 34.9°
